New Bern, NC

9:13 AM EDT on September 26, 2016 (GMT -0400)
Craven County Regional

Weather History for KEWN - February, 2014

Change the Weather History Date:

Thursday, February 20, 2014

  Actual Average Record
Temperature  
Mean Temperature 66 °F 48 °F  
Max Temperature 78 °F 59 °F 81 °F (1991)
Min Temperature 53 °F 37 °F 11 °F (2015)
Degree Days  
Heating Degree Days 0 17  
Month to date heating degree days 369 375  
Since 1 July heating degree days 1950 2015  
Cooling Degree Days 1 0  
Month to date cooling degree days 1 0  
Year to date cooling degree days 2 1  
Growing Degree Days 16 (Base 50)    
Moisture  
Dew Point 53 °F    
Average Humidity 71    
Maximum Humidity 93    
Minimum Humidity 49    
Precipitation  
Precipitation 0.00 in 0.14 in 0.91 in (1956)
Month to date precipitation 2.32 2.56  
Year to date precipitation 6.29 6.58  
Snow  
Snow 0.00 in - - ()
Month to date snowfall 11.7  
Since 1 July snowfall 11.7  
Snow Depth 0.00 in    
Sea Level Pressure  
Sea Level Pressure 30.15 in    
Wind  
Wind Speed 7 mph (SSE)    
Max Wind Speed 18 mph    
Max Gust Speed 25 mph    
Visibility 10 miles    
Events      
T = Trace of Precipitation, MM = Missing Value Source: NWS Daily Summary

Daily Weather History Graph

Daily Weather History Graph

Search for Another Location

Airport or City:

Trip Planner

Search our weather history database for the weather conditions in past years. The results will help you decide how hot, cold, wet, or windy it might be!

Date:

Astronomy

Feb. 20, 2014 Rise Set
Actual Time 6:48 AM EST 5:55 PM EST
Civil Twilight 6:22 AM EST 6:21 PM EST
Nautical Twilight 5:53 AM EST 6:50 PM EST
Astronomical Twilight 5:24 AM EST 7:20 PM EST
Moon 11:33 PM EST (2/20) 9:43 AM EST (2/20)
Length of Visible Light 11h 58m
Length of Day
11h 06m
Waning Gibbous, 71% of the Moon is Illuminated
Feb 20
Waning Gibbous
Feb 22
Last Quarter
Mar 1
New
Mar 8
First Quarter
Mar 16
Full

Hourly Weather History & Observations

Time (EST) Temp. Dew Point Humidity Pressure Visibility Wind Dir Wind Speed Gust Speed Precip Events Conditions
12:54 AM 55.0 °F 46.9 °F 74% 30.11 in 10.0 mi Calm Calm - N/A   Clear
1:54 AM 57.0 °F 46.9 °F 69% 30.13 in 10.0 mi Calm Calm - N/A   Mostly Cloudy
2:54 AM 54.0 °F 46.9 °F 77% 30.14 in 10.0 mi NE 4.6 mph - N/A   Partly Cloudy
3:54 AM 54.0 °F 48.0 °F 80% 30.18 in 10.0 mi NNE 4.6 mph - N/A   Mostly Cloudy
4:54 AM 55.9 °F 39.9 °F 55% 30.20 in 10.0 mi East 11.5 mph 19.6 mph N/A   Clear
5:54 AM 54.0 °F 36.0 °F 51% 30.22 in 10.0 mi East 8.1 mph - N/A   Clear
6:54 AM 53.1 °F 35.1 °F 50% 30.22 in 10.0 mi East 5.8 mph - N/A   Clear
7:54 AM 53.1 °F 37.9 °F 57% 30.23 in 10.0 mi East 5.8 mph - N/A   Clear
8:54 AM 55.9 °F 39.0 °F 53% 30.23 in 10.0 mi ESE 5.8 mph - N/A   Clear
9:54 AM 59.0 °F 41.0 °F 51% 30.22 in 10.0 mi SE 6.9 mph - N/A   Clear
10:54 AM 63.0 °F 45.0 °F 52% 30.23 in 10.0 mi Calm Calm - N/A   Clear
11:54 AM 66.0 °F 48.9 °F 54% 30.20 in 10.0 mi East 3.5 mph - N/A   Clear
12:54 PM 72.0 °F 53.1 °F 51% 30.16 in 10.0 mi Variable 4.6 mph - N/A   Clear
1:54 PM 73.9 °F 54.0 °F 50% 30.13 in 10.0 mi Variable 3.5 mph - N/A   Clear
2:54 PM 78.1 °F 60.1 °F 54% 30.11 in 10.0 mi SSW 12.7 mph - N/A   Scattered Clouds
3:54 PM 75.0 °F 62.1 °F 64% 30.12 in 10.0 mi South 12.7 mph 21.9 mph N/A   Clear
4:54 PM 72.0 °F 63.0 °F 73% 30.12 in 10.0 mi South 10.4 mph - N/A   Partly Cloudy
5:54 PM 68.0 °F 62.1 °F 81% 30.13 in 10.0 mi South 10.4 mph - N/A   Scattered Clouds
6:13 PM 68.0 °F 62.6 °F 83% 30.13 in 10.0 mi South 9.2 mph - N/A   Mostly Cloudy
6:29 PM 66.2 °F 62.6 °F 88% 30.13 in 10.0 mi South 9.2 mph - N/A   Mostly Cloudy
6:45 PM 66.2 °F 62.6 °F 88% 30.13 in 10.0 mi South 10.4 mph - N/A   Scattered Clouds
6:54 PM 66.9 °F 63.0 °F 87% 30.13 in 10.0 mi South 8.1 mph - N/A   Scattered Clouds
7:54 PM 66.0 °F 63.0 °F 90% 30.13 in 10.0 mi South 8.1 mph - N/A   Clear
8:05 PM 66.2 °F 62.6 °F 88% 30.13 in 10.0 mi SSW 11.5 mph - N/A   Partly Cloudy
8:54 PM 66.0 °F 63.0 °F 90% 30.12 in 10.0 mi South 8.1 mph - N/A   Partly Cloudy
9:54 PM 64.9 °F 62.1 °F 90% 30.12 in 10.0 mi SSW 10.4 mph - N/A   Clear
10:54 PM 64.9 °F 62.1 °F 90% 30.11 in 10.0 mi South 6.9 mph - N/A   Clear
11:54 PM 64.0 °F 61.0 °F 90% 30.10 in 10.0 mi SSW 8.1 mph - N/A   Clear